TimeMDT,TemperatureF,Dew PointF,Humidity,Sea Level PressureIn,VisibilityMPH,Wind Direction,Wind SpeedMPH,Gust SpeedMPH,PrecipitationIn,Events,Conditions,WindDirDegrees,DateUTC
12:00 AM,24,22,88,29.73,,NNE,8.1,,,,,20,2013-08-29 06:00:00
12:00 AM,23.9,21.9,92,29.73,-9999.0,NNE,8.1,-,N/A,,Unknown,20,2013-08-29 06:00:00
1:00 AM,22.5,20.8,93,29.73,-9999.0,NNE,9.2,-,N/A,,Unknown,20,2013-08-29 07:00:00
2:00 AM,19.6,18.5,96,29.73,-9999.0,NNE,12.7,-,N/A,,Unknown,30,2013-08-29 08:00:00
3:00 AM,19.9,18.3,93,29.74,-9999.0,NNE,8.1,-,N/A,,Unknown,30,2013-08-29 09:00:00
4:00 AM,19.9,17.1,89,29.75,-9999.0,NNE,9.2,-,N/A,,Unknown,30,2013-08-29 10:00:00
5:00 AM,22.1,20.1,92,29.75,-9999.0,NW,4.6,-,N/A,,Unknown,320,2013-08-29 11:00:00
6:00 AM,23,19,77,29.76,,North,8.1,,,,,350,2013-08-29 12:00:00
6:00 AM,23.4,18.7,82,29.76,-9999.0,North,8.1,-,N/A,,Unknown,350,2013-08-29 12:00:00
7:00 AM,23.4,18.9,83,29.76,-9999.0,North,11.5,-,N/A,,Unknown,360,2013-08-29 13:00:00
8:00 AM,23.2,19.9,87,29.76,-9999.0,North,8.1,-,N/A,,Unknown,360,2013-08-29 14:00:00
9:00 AM,24.6,19.8,82,29.76,-9999.0,North,5.8,-,N/A,,Unknown,360,2013-08-29 15:00:00
10:00 AM,25.2,21.4,86,29.76,-9999.0,NW,9.2,-,N/A,,Unknown,320,2013-08-29 16:00:00
11:00 AM,25.3,23.4,92,29.76,-9999.0,NW,9.2,-,N/A,,Unknown,310,2013-08-29 17:00:00
12:00 PM,27,25,87,29.76,,WNW,9.2,,,,,300,2013-08-29 18:00:00
12:00 PM,26.6,24.6,92,29.76,-9999.0,WNW,9.2,-,N/A,,Unknown,300,2013-08-29 18:00:00
1:00 PM,27.5,26.1,94,29.76,-9999.0,WNW,11.5,-,N/A,,Unknown,300,2013-08-29 19:00:00
2:00 PM,28.2,25.0,88,29.76,-9999.0,NNW,12.7,-,N/A,,Unknown,340,2013-08-29 20:00:00
3:00 PM,27.3,24.1,88,29.76,-9999.0,NNW,11.5,18.4,N/A,,Unknown,340,2013-08-29 21:00:00
4:00 PM,26.6,23.2,87,29.77,-9999.0,NNW,17.3,-,N/A,,Unknown,330,2013-08-29 22:00:00
5:00 PM,26.4,23.7,90,29.78,-9999.0,NNW,13.8,-,N/A,,Unknown,330,2013-08-29 23:00:00
6:00 PM,27,24,86,29.78,,NNW,9.2,,,,,340,2013-08-30 00:00:00
6:00 PM,26.8,24.4,91,29.78,-9999.0,NNW,9.2,-,N/A,,Unknown,340,2013-08-30 00:00:00
7:00 PM,26.8,23.7,88,29.78,-9999.0,NNW,12.7,-,N/A,,Unknown,340,2013-08-30 01:00:00
8:00 PM,26.2,23.5,90,29.79,-9999.0,North,9.2,-,N/A,,Unknown,350,2013-08-30 02:00:00
9:00 PM,26.6,24.6,92,29.78,-9999.0,NNW,9.2,-,N/A,,Unknown,340,2013-08-30 03:00:00
10:00 PM,27.1,26.1,96,29.79,-9999.0,NNW,10.4,-,N/A,,Unknown,330,2013-08-30 04:00:00
11:00 PM,27.7,26.6,96,29.79,-9999.0,NNW,12.7,-,N/A,,Unknown,330,2013-08-30 05:00:00